User: anonymous   Login
Location: Leuk
(46.3174°N, 7.6341°E)
Time: 21:48:22
(UTC+00:00)
Language:

COSMOS 2487 - Orbit

View from above orbital plane
View from above orbital plane
View from above satellite
View from above satellite

Ground track
Ground track

The orbit data is extracted from the following two-line orbital elements,

1 39194U 13032A   21135.02406707  .00005593  00000-0  12239-3 0  9995
2 39194  74.7098  74.2092 0001365 182.2686 177.8522 15.44326664441197
Epoch (UTC): 15 May 2021 00:34:39
Eccentricity: 0.0001365
inclination: 74.7098°
perigee height: 432 km
apogee height: 434 km
right ascension of ascending node: 74.2092°
argument of perigee: 182.2686°
revolutions per day: 15.44326664
mean anomaly at epoch: 177.8522°
orbit number at epoch: 44119

The dashed part of the orbit path shows where the satellite is in the earth's shadow,  

DLR